Regional Weather Roundup
Issued by NWS Jackson, KY

Home | Current Version | Previous Version | Text Only | Print | Product List | Glossary On
Versions: 1 2 3 4 5 6 7 8 9 10 11 12 13 14 15 16 17 18 19 20 21 22 23 24 25 26 27 28 29 30 31 32 33 34 35 36 37 38 39 40 41 42 43 44 45 46 47 48 49 50
000
ASUS43 KJKL 021510
RWRJKL

EAST KENTUCKY HOURLY WEATHER ROUNDUP
NATIONAL WEATHER SERVICE JACKSON KY
1000 AM EST MON MAR 02 2015

NOTE: "FAIR" INDICATES FEW OR NO CLOUDS BELOW 12,000 FEET WITH
NO SIGNIFICANT WEATHER AND/OR OBSTRUCTIONS TO VISIBILITY.

* THESE REPORTS ARE NOT UNDER NWS QUALITY CONTROL AND MAY NOT
  REPORT WEATHER SUCH AS PRECIPITATION AND FOG.

KYZ079-080-083-085-087-088-110-112-115-119-120-021600
...EASTERN KENTUCKY...

CITY           SKY/WX    TMP DP  RH WIND       PRES   REMARKS
JACKSON        PTSUNNY   31  24  75 W3        30.47R
LONDON         PTSUNNY   35  27  72 NE8       30.48R WCI  29
SOMERSET*      PTSUNNY   32  28  86 NE12      30.50F WCI  23
MONTICELLO*    PTSUNNY   34  29  82 NE9       30.52S WCI  27
MIDDLESBORO*   CLOUDY    34  32  93 N8        30.46R WCI  27
HAZARD APT*    MOSUNNY   34  30  86 NE3       30.48R
BLACK MTN*       N/A     25  25 100 N7          N/A  WCI  17
PIKEVILLE APT* PTSUNNY   32  28  86 CALM      30.46R
BIG SANDY*     CLOUDY    33  27  79 NW3       30.48S
MOREHEAD APT*  MOSUNNY   28  19  69 CALM      30.52S
$$

KYZ035-036-041-042-044-050-067-078-099-021600
...CENTRAL KENTUCKY...

CITY           SKY/WX    TMP DP  RH WIND       PRES   REMARKS
MT STERLING*   MOSUNNY   30  21  69 E3        30.52S
FLEMING/MASON* SUNNY     27  18  69 CALM      30.53R
DANVILLE*      SUNNY     30  21  69 NE6       30.52S WCI  24
RICHMOND*      SUNNY     30  19  64 NE6       30.50S WCI  24
LEXINGTON      SUNNY     28  19  69 N6        30.52R WCI  22
FRANKFORT      SUNNY     28  17  63 N3        30.52R
$$

KYZ091>093-OHZ055-061-077-WVZ005-015-034-035-042-021600
...SOUTHERN OHIO/WEST VIRGINIA...

CITY           SKY/WX    TMP DP  RH WIND       PRES   REMARKS
COVINGTON      PTSUNNY   25  15  66 N3        30.52R
COLUMBUS       PTSUNNY   21  14  74 W5        30.50R WCI  15
DAYTON         PTSUNNY   20  12  71 W5        30.51R WCI  13
WILMINGTON     SUNNY     23  14  68 N5        30.51R WCI  17
HUNTINGTON     MOSUNNY   31  23  72 NW6       30.49S WCI  25
CHARLESTON     MOSUNNY   33  24  69 NW9       30.47S WCI  25
PINEVILLE*     PTSUNNY   37  32  82 MISG      30.47R
BECKLEY        CLOUDY    29  22  75 NW14      30.37R WCI  18
BLUEFIELD      CLOUDY    32  28  85 NW9G17    30.34R FOG     WCI  24
$$

VAZ002-007-008-TNZ017-027-036-066-071-021600
...SOUTHWEST VIRGINIA/EAST TENNESSEE...

CITY           SKY/WX    TMP DP  RH WIND       PRES   REMARKS
WISE*          CLOUDY    32  32 100 N8        30.39R WCI  25
JONESVILLE*    CLOUDY    36  32  87 NW6       30.45R WCI  31
ABINGDON*      CLOUDY    38  35  87 N12       30.37R WCI  31
BRISTOL        CLOUDY    40  36  86 N10       30.40R WCI  33
KNOXVILLE      CLOUDY    40  36  86 NE12      30.42S WCI  33
OAK RIDGE      CLOUDY    40  35  83 VRB6      30.44S
CROSSVILLE     CLOUDY    33  31  92 N13       30.41R FOG     WCI  24
NASHVILLE      PTSUNNY   34  30  85 NE12      30.49S WCI  25
$$

...KEY TO REMARKS...
VSB - VISIBILITY IN MILES
WCI - WIND CHILL INDEX
HX  - HEAT INDEX

$$


USA.gov is the U.S. government's official web portal to all federal, state and local government web resources and services.